Stations météo

Publicité
Carcassonne, France (7635): Température de l'air & dewpoint: 18.01.2019 11:00:00 - 24.01.2019 11:00:00 (CET)Carcassonne, France (7635): Température de l'air 5cm: 18.01.2019 11:00:00 - 24.01.2019 11:00:00 (CET)Carcassonne, France (7635): Température de l'air -20cm & Température de l'air -100cm: 18.01.2019 11:00:00 - 24.01.2019 11:00:00 (CET)Carcassonne, France (7635): Vitesse du vent & gusts: 18.01.2019 11:00:00 - 24.01.2019 11:00:00 (CET)Carcassonne, France (7635): Direction du vent: 18.01.2019 11:00:00 - 24.01.2019 11:00:00 (CET)Carcassonne, France (7635): reduced air pressure: 18.01.2019 11:00:00 - 24.01.2019 11:00:00 (CET)Carcassonne, France (7635): visibility: 18.01.2019 11:00:00 - 24.01.2019 11:00:00 (CET)Carcassonne, France (7635): Ensoleillement: 18.01.2019 11:00:00 - 24.01.2019 11:00:00 (CET)Carcassonne, France (7635): Quantités de précipitations: 18.01.2019 11:00:00 - 24.01.2019 11:00:00 (CET)
Date & Time tt [°C] td [°C] tt 5cm [°C] tt -20cm [°C] tt -100cm [°C] ff [km/h] ff [knt] fx [km/h] fx [knt] dd ppp [hPa] vv [km] sd [min] rr [mm]
24.01.2019 11:00:00 2,2 -2,9 2,2 5,6 9,6 36 20 74 40 W 1011,3 38 9 0,0
24.01.2019 10:00:00 1,9 -2,6 1,4 5,7 9,6 33 18 61 33 W 1010,4 42 0 0,0
24.01.2019 09:00:00 1,5 -2,8 0,8 5,7 9,6 32 17 65 35 W 1009,4 41 0 0,0
24.01.2019 08:00:00 1,2 -2,7 0,3 5,8 9,6 34 18 80 43 W 1008,5 43 0 0,0
24.01.2019 07:00:00 1,0 -2,6 0,4 6,0 9,7 46 25 78 42 WNW 1005,9 45 0 0,0
24.01.2019 06:00:00 1,1 -2,5 0,6 6,1 9,7 41 22 68 37 W 1005,7 48 0 0,0
24.01.2019 05:00:00 1,8 -2,3 1,3 6,1 9,7 31 17 67 36 WSW 1005,3 59 0 0,0
24.01.2019 04:00:00 1,8 -2,0 1,4 6,2 9,7 37 20 61 33 WNW 1004,7 60 0 0,0
24.01.2019 03:00:00 2,4 -2,1 1,9 6,3 9,7 37 20 69 37 WNW 1004,6 60 0 0,0
24.01.2019 02:00:00 2,7 -1,5 2,3 6,4 9,7 36 19 58 32 WNW 1004,0 59 0 0,0
24.01.2019 01:00:00 2,7 -0,8 1,3 6,5 9,7 29 16 49 26 WNW 1003,8 60 0 0,0
24.01.2019 00:00:00 2,4 -1,2 1,3 6,5 9,7 28 15 45 24 WNW 1003,5 60 0 0,0
23.01.2019 23:00:00 2,9 -0,6 1,3 6,6 9,7 28 15 44 24 WNW 1003,5 60 0 0,0
23.01.2019 22:00:00 2,3 -0,3 0,8 6,7 9,7 23 12 41 22 W 1003,4 60 0 0,0
23.01.2019 21:00:00 2,3 -0,1 1,5 6,8 9,7 23 12 42 23 W 1002,9 60 0 0,0
23.01.2019 20:00:00 2,5 -0,4 1,6 6,9 9,7 24 13 61 33 W 1002,3 60 0 0,0
23.01.2019 19:00:00 3,4 0,4 2,1 7,0 9,7 21 12 50 27 WNW 1001,0 60 0 0,0
23.01.2019 18:00:00 3,4 0,6 2,1 7,0 9,7 41 22 66 36 WNW 1000,4 8 0 0,4
23.01.2019 17:00:00 4,3 1,2 2,5 7,0 9,7 26 14 49 27 WNW 999,6 59 0 0,4
23.01.2019 16:00:00 5,2 1,3 3,3 7,0 9,7 38 21 68 37 WNW 998,8 58 1 0,4
23.01.2019 15:00:00 5,9 2,2 2,6 7,0 9,7 37 20 76 41 WNW 997,0 57 0 1,8
23.01.2019 14:00:00 5,4 1,3 2,9 6,9 9,7 45 25 75 40 WNW 997,2 2,9 11 0,4
23.01.2019 13:00:00 6,2 4,8 4,9 6,9 9,7 31 17 52 28 W 997,3 20 0 0,6
23.01.2019 12:00:00 5,0 3,8 4,5 6,9 9,7 22 12 44 24 W 998,3 15 0 0,8
23.01.2019 11:00:00 5,0 3,5 4,5 6,9 9,7 20 11 43 23 WSW 998,8 17 0 0,2
23.01.2019 10:00:00 5,1 3,9 4,4 6,9 9,7 19 10 33 18 W 998,8 20 0 2,2
23.01.2019 09:00:00 5,3 4,4 4,7 6,9 9,7 10 5 23 12 W 998,7 4,1 0 2,3
23.01.2019 08:00:00 5,2 4,2 4,7 6,9 9,7 10 6 29 16 W 998,1 10 0 2,2
23.01.2019 07:00:00 5,4 4,5 4,8 6,9 9,7 12 7 22 12 W 999,1 8 0 1,8
23.01.2019 06:00:00 5,5 4,3 4,5 7,0 9,7 13 7 23 13 W 999,9 4,8 0 1,4
23.01.2019 05:00:00 5,0 3,8 3,9 7,0 9,7 9 5 18 10 W 1000,7 34 0 0,2
23.01.2019 04:00:00 4,3 3,3 3,6 7,0 9,7 8 4 14 7 W 1002,0 55 0 0,2
23.01.2019 03:00:00 4,1 2,8 3,5 7,0 9,7 7 4 16 8 SW 1003,2 6 0 0,4
23.01.2019 02:00:00 4,1 2,6 3,5 7,1 9,7 8 5 21 11 W 1003,9 30 0 0,0
23.01.2019 01:00:00 4,0 2,3 3,2 7,2 9,8 13 7 26 14 W 1004,7 55 0 0,0
23.01.2019 00:00:00 4,0 1,9 3,3 7,3 9,8 15 8 24 13 W 1005,5 55 0 0,0
22.01.2019 23:00:00 4,6 2,1 4,0 7,3 9,7 16 9 29 15 W 1006,6 60 0 0,0
22.01.2019 22:00:00 4,8 2,0 4,1 7,3 9,7 16 9 37 20 W 1007,1 60 0 0,0
22.01.2019 21:00:00 5,5 2,8 4,9 7,4 9,8 19 10 44 24 W 1008,0 48 0 0,0
22.01.2019 20:00:00 5,4 2,7 4,8 7,4 9,7 26 14 51 27 W 1008,6 60 0 0,0
22.01.2019 19:00:00 5,5 3,3 3,9 7,5 9,7 29 16 55 30 W 1008,6 60 0 1,2
22.01.2019 18:00:00 4,5 3,2 3,7 7,4 9,7 10 5 31 17 W 1008,3 6 0 1,6
22.01.2019 17:00:00 5,3 1,4 4,0 7,4 9,7 16 9 33 18 W 1008,3 10 0 0,2
22.01.2019 16:00:00 6,6 0,3 6,7 7,2 9,7 11 6 22 12 W 1008,1 33 0 0,0
22.01.2019 15:00:00 6,7 -0,8 7,2 7,1 9,7 11 6 21 11 W 1008,9 44 0 0,0
22.01.2019 14:00:00 6,3 -0,9 7,4 6,9 9,8 12 7 30 16 W 1009,9 41 8 0,0
22.01.2019 13:00:00 7,0 -0,5 9,4 6,7 9,7 19 10 31 17 W 1011,5 60 60 0,0
22.01.2019 12:00:00 6,5 0,0 9,3 6,5 9,7 20 11 30 16 WNW 1013,3 54 60 0,0
22.01.2019 11:00:00 4,7 -0,5 4,7 6,5 9,7 15 8 29 16 WNW 1014,9 45 54 0,0
22.01.2019 10:00:00 2,7 -1,5 0,2 6,6 9,7 19 10 31 17 W 1016,1 38 60 0,0
22.01.2019 09:00:00 0,7 -1,9 0,1 6,7 9,7 11 6 29 15 W 1017,2 29 21 0,0
22.01.2019 08:00:00 0,7 -2,0 0,1 6,8 9,7 14 8 34 19 WSW 1017,6 38 0 0,0
22.01.2019 07:00:00 1,2 -1,5 0,4 6,9 9,8 18 10 36 20 W 1017,9 29 0 0,0
22.01.2019 06:00:00 1,7 -1,2 1,0 7,0 9,7 16 9 33 18 W 1018,3 31 0 0,0
22.01.2019 05:00:00 2,2 -0,9 1,8 7,0 9,7 18 10 39 21 W 1018,8 31 0 0,0
22.01.2019 04:00:00 2,6 -0,9 2,5 7,1 9,8 23 12 39 21 W 1019,6 38 0 0,0
22.01.2019 03:00:00 2,8 -1,0 2,6 7,2 9,7 18 10 34 19 W 1020,3 40 0 0,0
22.01.2019 02:00:00 3,0 -0,5 2,4 7,3 9,7 22 12 41 22 W 1020,7 35 0 0,0
22.01.2019 01:00:00 3,0 -0,1 2,4 7,4 9,7 24 13 46 25 W 1021,2 35 0 0,0
22.01.2019 00:00:00 3,6 0,1 3,4 7,5 9,8 25 14 44 24 W 1021,4 36 0 0,0
21.01.2019 23:00:00 3,9 0,2 3,7 7,6 9,7 24 13 45 24 W 1021,3 44 0 0,0
21.01.2019 22:00:00 4,0 0,1 3,7 7,6 9,7 26 14 47 25 W 1021,3 51 0 0,0
21.01.2019 21:00:00 4,0 0,7 3,8 7,7 9,7 24 13 55 30 W 1021,3 39 0 0,0
21.01.2019 20:00:00 4,4 0,7 4,2 7,8 9,7 24 13 45 24 W 1021,1 46 0 0,0
21.01.2019 19:00:00 4,9 0,7 4,6 7,8 9,7 24 13 46 25 W 1020,9 47 0 0,0
21.01.2019 18:00:00 5,3 0,5 4,9 7,9 9,7 26 14 52 28 WNW 1020,5 46 0 0,0
21.01.2019 17:00:00 6,0 0,7 5,7 7,9 9,7 32 17 51 28 W 1020,2 48 0 0,0
21.01.2019 16:00:00 6,4 0,7 6,2 7,8 9,7 27 15 52 28 WNW 1020,0 55 0 0,0
21.01.2019 15:00:00 7,2 0,6 7,0 7,7 9,7 34 18 51 28 W 1019,7 57 0 0,0
21.01.2019 14:00:00 7,4 1,9 7,5 7,6 9,7 31 17 53 29 WNW 1019,9 56 10 0,0
21.01.2019 13:00:00 7,1 2,0 7,6 7,5 9,7 27 14 49 27 W 1020,2 47 34 0,0
21.01.2019 12:00:00 6,9 2,8 6,3 7,5 9,7 23 12 39 21 W 1020,5 53 7 0,0
21.01.2019 11:00:00 5,9 2,9 5,9 7,5 9,7 23 13 43 23 W 1020,3 51 1 0,0
21.01.2019 10:00:00 5,7 3,2 4,9 7,5 9,7 23 12 37 20 W 1019,5 50 0 0,0
21.01.2019 09:00:00 5,5 3,3 5,0 7,6 9,7 23 13 38 20 WNW 1019,0 40 0 0,0
21.01.2019 08:00:00 5,8 4,0 5,0 7,6 9,7 20 11 36 19 W 1018,6 27 0 0,0
21.01.2019 07:00:00 5,8 4,0 4,8 7,6 9,7 19 11 33 18 W 1018,0 44 0 0,0
21.01.2019 06:00:00 6,2 4,7 5,5 7,7 9,7 20 11 35 19 W 1017,6 9 0 0,0
21.01.2019 05:00:00 6,3 4,6 5,1 7,7 9,7 22 12 34 18 W 1017,2 18 0 0,0
21.01.2019 04:00:00 6,2 4,7 5,3 7,7 9,7 18 10 29 16 W 1017,4 18 0 0,0
21.01.2019 03:00:00 6,1 4,6 5,5 7,7 9,7 14 8 29 16 W 1017,5 33 0 0,4
21.01.2019 02:00:00 6,7 5,3 5,6 7,8 9,7 17 9 29 16 W 1017,2 16 0 0,0
21.01.2019 01:00:00 6,6 4,9 5,6 7,8 9,7 16 9 25 13 W 1017,2 41 0 0,0
21.01.2019 00:00:00 6,3 4,1 5,4 7,8 9,7 10 6 27 14 W 1017,3 60 0 0,0
20.01.2019 23:00:00 6,8 4,3 6,1 7,9 9,7 13 7 30 16 W 1016,9 16 0 0,0
20.01.2019 22:00:00 7,2 5,0 6,7 7,9 9,7 11 6 24 13 W 1016,3 37 0 0,0
20.01.2019 21:00:00 7,2 5,2 6,7 7,9 9,7 14 7 26 14 W 1015,9 18 0 0,0
20.01.2019 20:00:00 7,1 5,1 6,3 7,9 9,7 14 7 22 12 W 1015,4 10 0 0,0
20.01.2019 19:00:00 7,2 5,2 6,3 7,9 9,7 13 7 25 13 W 1015,0 13 0 0,0
20.01.2019 18:00:00 8,1 4,1 7,5 7,9 9,7 14 8 26 14 W 1014,1 25 0 0,0
20.01.2019 17:00:00 8,6 3,8 8,3 7,8 9,7 18 10 29 16 W 1013,6 23 0 0,0
20.01.2019 16:00:00 9,4 4,6 9,8 7,6 9,7 18 10 28 15 W 1013,1 26 3 0,0
20.01.2019 15:00:00 9,1 4,5 9,6 7,5 9,7 13 7 21 11 W 1013,0 20 0 0,0
20.01.2019 14:00:00 8,8 4,6 9,5 7,3 9,7 17 9 26 14 W 1013,1 20 0 0,0
20.01.2019 13:00:00 8,7 4,3 9,0 7,2 9,7 13 7 19 10 W 1013,4 20 13 0,0
20.01.2019 12:00:00 8,0 4,0 8,1 7,0 9,7 11 6 20 11 W 1013,6 20 5 0,0
20.01.2019 11:00:00 7,0 4,0 6,8 7,0 9,7 11 6 18 10 W 1013,5 33 0 0,0
20.01.2019 10:00:00 6,3 3,1 5,5 7,0 9,7 8 4 13 7 W 1012,7 29 0 0,0
20.01.2019 09:00:00 5,6 3,3 5,2 7,0 9,7 6 3 10 5 W 1012,1 29 0 0,0
20.01.2019 08:00:00 5,6 3,1 5,2 7,0 9,7 4 2 10 6 W 1011,3 45 0 0,0
20.01.2019 07:00:00 6,1 2,0 5,2 7,1 9,7 5 3 15 8 SSW 1010,7 60 0 0,0
20.01.2019 06:00:00 5,9 2,5 5,2 7,1 9,7 7 4 19 10 S 1010,1 51 0 0,0
20.01.2019 05:00:00 6,6 2,7 5,8 7,1 9,7 9 5 19 10 SE 1009,9 60 0 0,0
20.01.2019 04:00:00 6,7 3,1 5,9 7,1 9,7 10 5 24 13 SE 1010,1 60 0 0,0
20.01.2019 03:00:00 6,5 3,1 5,6 7,1 9,7 8 4 22 12 ESE 1010,3 60 0 0,0
20.01.2019 02:00:00 6,8 3,4 6,1 7,1 9,7 12 6 26 14 ESE 1009,9 60 0 0,0
20.01.2019 01:00:00 6,6 3,7 5,7 7,1 9,7 9 5 24 13 ESE 1010,2 58 0 0,0
20.01.2019 00:00:00 6,8 3,9 6,0 7,2 9,7 9 5 24 13 ESE 1010,6 57 0 0,0
19.01.2019 23:00:00 6,2 3,9 5,1 7,2 9,7 7 4 18 10 E 1010,7 47 0 0,0
19.01.2019 22:00:00 5,7 3,9 4,2 7,3 9,7 8 4 23 12 E 1010,8 32 0 0,0
19.01.2019 21:00:00 5,2 3,5 4,1 7,4 9,7 17 9 26 14 E 1010,9 35 0 0,0
19.01.2019 20:00:00 5,6 3,4 4,4 7,4 9,7 18 10 27 15 E 1011,3 41 0 0,0
19.01.2019 19:00:00 6,4 3,4 4,0 7,4 9,7 14 8 21 12 ENE 1011,4 43 0 0,0
19.01.2019 18:00:00 7,2 2,7 4,6 7,4 9,7 9 5 13 7 ENE 1011,2 33 6 0,0
19.01.2019 17:00:00 10,5 2,8 8,3 7,2 9,7 3 2 9 5 SSE 1011,3 60 32 0,0
19.01.2019 16:00:00 11,4 2,4 13,3 7,1 9,7 5 3 11 6 W 1011,6 60 57 0,0
19.01.2019 15:00:00 10,5 2,3 10,8 6,8 9,7 5 3 12 6 W 1012,5 55 33 0,0
19.01.2019 14:00:00 9,0 3,2 10,6 6,6 9,7 4 2 8 5 NW 1013,4 53 6 0,0
19.01.2019 13:00:00 8,2 3,8 10,4 6,4 9,7 5 3 10 6 NW 1014,4 43 19 0,0
19.01.2019 12:00:00 6,4 3,7 10,9 6,3 9,7 3 2 8 4 NE 1015,6 39 57 0,0
19.01.2019 11:00:00 3,4 3,0 2,9 6,3 9,7 2 1 7 4 NNW 1016,3 16 5 0,0
19.01.2019 10:00:00 1,9 1,5 0,0 6,4 9,7 2 1 7 4 WNW 1016,2 10 0 0,0
19.01.2019 09:00:00 0,5 0,1 -0,9 6,5 9,7 0 0 5 3 N 1016,1 8 0 0,0
19.01.2019 08:00:00 -0,1 -0,5 -4,2 6,6 9,7 0 0 11 6 N 1015,8 7 0 0,0
19.01.2019 07:00:00 -0,9 -1,6 -4,3 6,7 9,8 3 2 6 3 S 1015,6 0,5 0 0,0
19.01.2019 06:00:00 -0,4 -1,2 -3,9 6,8 9,7 4 2 8 5 W 1015,6 4,0 0 0,0
19.01.2019 05:00:00 0,5 -0,4 -3,1 7,0 9,7 2 1 7 4 S 1015,8 4,0 0 0,0
19.01.2019 04:00:00 1,9 1,2 -2,5 7,1 9,7 2 1 5 3 S 1016,2 4,9 0 0,0
19.01.2019 03:00:00 1,6 0,3 -2,4 7,1 9,7 0 0 8 4 N 1016,8 4,3 0 0,0
19.01.2019 02:00:00 3,3 2,3 0,5 7,2 9,7 6 4 14 8 SSW 1016,6 12 0 0,0
19.01.2019 01:00:00 3,9 2,3 1,2 7,3 9,7 6 3 14 8 SW 1016,9 11 0 0,0
19.01.2019 00:00:00 4,4 3,1 0,9 7,4 9,7 3 1 14 8 SW 1017,2 18 0 0,0
18.01.2019 23:00:00 4,5 2,5 2,9 7,4 9,7 9 5 16 9 WSW 1017,0 14 0 0,0
18.01.2019 22:00:00 6,1 3,6 5,4 7,4 9,8 10 5 17 9 WSW 1016,8 20 0 0,0
18.01.2019 21:00:00 6,3 3,5 5,8 7,4 9,7 8 4 18 10 WSW 1017,0 37 0 0,0
18.01.2019 20:00:00 6,6 3,6 5,6 7,5 9,7 9 5 19 10 WSW 1017,2 45 0 0,0
18.01.2019 19:00:00 6,3 3,5 5,6 7,5 9,8 10 5 20 11 WSW 1017,0 42 0 0,0
18.01.2019 18:00:00 6,6 3,2 5,8 7,5 9,8 8 4 18 10 W 1017,0 54 0 0,0
18.01.2019 17:00:00 7,5 3,2 7,2 7,4 9,7 13 7 26 14 WNW 1017,0 60 0 0,0
18.01.2019 16:00:00 8,1 3,2 8,5 7,2 9,8 16 9 35 19 WNW 1016,9 60 12 0,0
18.01.2019 15:00:00 8,1 3,2 8,6 7,1 9,8 20 11 37 20 W 1017,0 52 5 0,0
18.01.2019 14:00:00 8,3 4,3 8,9 6,8 9,7 22 12 34 19 WNW 1017,4 51 14 0,0
18.01.2019 13:00:00 9,0 4,2 9,5 6,6 9,8 23 13 37 20 W 1018,1 53 48 0,0
18.01.2019 12:00:00 7,5 3,4 7,3 6,5 9,8 23 12 37 20 W 1019,0 28 44 0,0
18.01.2019 11:00:00 6,5 3,5 5,8 6,4 9,7 15 8 28 15 W 1019,7 60 27 0,0

tt = Température de l'air
td = dewpoint
tt 5cm = Température de l'air 5cm
tt -20cm = Température de l'air -20cm
tt -100cm = Température de l'air -100cm
ff = Vitesse du vent
fx = gusts
dd = Direction du vent
ppp = reduced air pressure
vv = visibility
sd = Ensoleillement
rr = Quantités de précipitations

stations d'obs. à proximité